Simultaneous Nadir Overpasses (SNOs) Predictions

Prediction of SNOs between METOP-B and TERRA Satellite Orbit:

Table of predicted SNOs for the next 14.0 days since TLE Epoch: 3/11/2023
Index Date (METOP-B) Time (METOP-B) Lat,Lon (METOP-B) SZA (METOP-B ) Date (TERRA) Time (TERRA) Lat,Lon (TERRA) SZA (TERRA ) Distance(km) Time Diff (sec)
1 03/11/2023 20:41:37 -80.93, 84.53 94.14 03/11/2023 20:41:51 -80.94, 84.52 94.13 0.28 14
2 03/11/2023 21:32:15 80.98,-107.24 85.96 03/11/2023 21:31:11 80.98,-107.24 85.94 0.55 64
3 03/14/2023 12:02:36 80.89, 33.33 84.72 03/14/2023 12:03:44 80.89, 33.46 84.76 2.42 68
4 03/14/2023 12:53:14 -80.94,-158.23 95.16 03/14/2023 12:53:06 -80.93,-158.39 95.18 3.08 8
5 03/17/2023 04:14:12 80.91, 150.78 83.73 03/17/2023 04:14:57 80.90, 150.79 83.75 0.16 45
6 03/17/2023 05:04:51 -80.94, -41.12 96.19 03/17/2023 05:04:19 -80.95, -41.04 96.19 1.36 32
7 03/19/2023 20:25:48 80.92, -91.89 82.72 03/19/2023 20:26:09 80.91, -91.96 82.72 1.41 21
8 03/19/2023 21:16:27 -80.95, 76.22 97.20 03/19/2023 21:15:31 -80.95, 76.23 97.22 0.24 56
9 03/22/2023 11:46:45 -80.88,-142.85 98.40 03/22/2023 11:47:59 -80.87,-142.91 98.38 1.31 74



Historial Predications of SNOs between METOP-B and TERRA
